This is the latest recevied weather packets stored in our database for station/object N9BSW. If no packets are shown the sender has not sent any weather packets the latest 10 day(s).
| Time | Temp. | Humidity | Pressure | Rain* | Wind** | Luminosity | Snow |
|---|---|---|---|---|---|---|---|
| 1777420450 | 16.67° C | 71% | 1014.8 hPa | 0 mm | - | 18 W/m² | - |
| 1777420147 | 17.22° C | 70% | 1014.7 hPa | 0 mm | - | 22 W/m² | - |
| 1777419843 | 17.22° C | 69% | 1014.8 hPa | 0 mm | - | 27 W/m² | - |
| 1777419540 | 17.22° C | 69% | 1014.6 hPa | 0 mm | - | 32 W/m² | - |
| 1777419239 | 17.22° C | 68% | 1014.4 hPa | 0 mm | - | 36 W/m² | - |
| 1777418936 | 17.78° C | 68% | 1014.1 hPa | 0 mm | - | 49 W/m² | - |
| 1777418631 | 17.78° C | 68% | 1013.9 hPa | 0 mm | - | 57 W/m² | - |
| 1777418328 | 17.78° C | 68% | 1013.3 hPa | 0 mm | - | 64 W/m² | - |
| 1777418024 | 17.78° C | 66% | 1013.7 hPa | 0 mm | - | 71 W/m² | - |
| 1777417720 | 17.78° C | 66% | 1013.9 hPa | 0 mm | - | 83 W/m² | - |
| 1777417415 | 17.78° C | 67% | 1013.7 hPa | 0 mm | - | 98 W/m² | - |
| 1777417112 | 18.33° C | 67% | 1013.7 hPa | 0 mm | - | 110 W/m² | - |
| 1777416807 | 18.33° C | 64% | 1013.2 hPa | 0 mm | - | 123 W/m² | - |
| 1777416503 | 18.89° C | 64% | 1013.1 hPa | 0 mm | - | 142 W/m² | - |
| 1777416200 | 18.33° C | 66% | 1012.8 hPa | 0 mm | - | 188 W/m² | - |
| 1777415899 | 18.33° C | 64% | 1012.8 hPa | 0 mm | - | 194 W/m² | - |
| 1777415595 | 18.89° C | 65% | 1012.7 hPa | 0 mm | - | 199 W/m² | - |
| 1777415292 | 18.89° C | 65% | 1012.7 hPa | 0 mm | - | 201 W/m² | - |
| 1777414986 | 18.33° C | 64% | 1012.8 hPa | 0 mm | - | 207 W/m² | - |
| 1777414686 | 18.89° C | 65% | 1012.7 hPa | 0 mm | - | 194 W/m² | - |
| 1777414381 | 18.89° C | 65% | 1013 hPa | 0 mm | - | 198 W/m² | - |
| 1777414076 | 18.89° C | 64% | 1012.9 hPa | 0 mm | - | 203 W/m² | - |
| 1777413776 | 18.89° C | 65% | 1013.3 hPa | 0 mm | - | 207 W/m² | - |
| 1777413472 | 18.89° C | 63% | 1013.4 hPa | 0 mm | - | 211 W/m² | - |
| 1777413168 | 18.89° C | 63% | 1013.5 hPa | 0 mm | - | 250 W/m² | - |
* Rain latest hour (hover to see other rain measurements)
** Current wind speed in m/s (hover to see current wind gust speed)